Rochelle, IL

11:06 PM CDT on June 24, 2017 (GMT -0500)
Rochelle

Weather History for KRPJ - May, 2013

Change the Weather History Date:

Sunday, May 19, 2013

  Actual Average (KRFD) Record (KRFD)
Temperature  
Mean Temperature 74 °F -  
Max Temperature 90 °F 73 °F 96 °F (1934)
Min Temperature 59 °F 50 °F 31 °F (1929)
Cooling Degree Days 10    
Growing Degree Days 24 (Base 50)    
Moisture  
Dew Point 60 °F    
Average Humidity 63    
Maximum Humidity 92    
Minimum Humidity 32    
Precipitation  
Precipitation 0.24 in - - ()
Sea Level Pressure  
Sea Level Pressure 29.86 in    
Wind  
Wind Speed 12 mph (SE)    
Max Wind Speed 38 mph    
Max Gust Speed 44 mph    
Visibility 8 miles    
Events Rain , Thunderstorm    
Averages and records for this station are not official NWS values.
T = Trace of Precipitation, MM = Missing Value Source: NWS Daily Summary

Daily Weather History Graph

Daily Weather History Graph

Search for Another Location

Airport or City:

Trip Planner

Search our weather history database for the weather conditions in past years. The results will help you decide how hot, cold, wet, or windy it might be!

Date:

Astronomy

May. 19, 2013 Rise Set
Actual Time 5:32 AM CDT 8:14 PM CDT
Civil Twilight 4:59 AM CDT 8:46 PM CDT
Nautical Twilight 4:19 AM CDT 9:27 PM CDT
Astronomical Twilight 3:33 AM CDT 10:13 PM CDT
Moon 2:12 PM CDT (5/19) 2:01 AM CDT (5/19)
Length of Visible Light 15h 46m
Length of Day
14h 41m
Waxing Gibbous, 65% of the Moon is Illuminated
May 19
Waxing Gibbous
May 24
Full
May 31
Last Quarter
Jun 8
New
Jun 16
First Quarter

Hourly Weather History & Observations

Time (CDT) Temp. Heat Index Dew Point Humidity Pressure Visibility Wind Dir Wind Speed Gust Speed Precip Events Conditions
12:15 AM 66.7 °F - 59.2 °F 77% 29.94 in 10.0 mi ESE 11.5 mph - N/A   Clear
12:35 AM 66.6 °F - 59.4 °F 78% 29.93 in 10.0 mi ESE 10.4 mph - N/A   Clear
12:55 AM 66.2 °F - 59.2 °F 78% 29.93 in 7.0 mi ESE 11.5 mph - N/A   Clear
1:15 AM 65.3 °F - 59.0 °F 80% 29.94 in 7.0 mi SE 10.4 mph - N/A   Clear
1:35 AM 65.3 °F - 59.2 °F 81% 29.93 in 7.0 mi ESE 9.2 mph - N/A   Clear
1:55 AM 64.8 °F - 59.0 °F 82% 29.94 in 7.0 mi ESE 9.2 mph - N/A   Clear
2:15 AM 64.2 °F - 59.0 °F 83% 29.93 in 7.0 mi ESE 9.2 mph - N/A   Clear
2:35 AM 63.5 °F - 58.6 °F 84% 29.94 in 7.0 mi SE 8.1 mph - N/A   Clear
2:55 AM 63.9 °F - 59.0 °F 84% 29.94 in 7.0 mi SE 6.9 mph - N/A   Clear
3:15 AM 64.6 °F - 59.5 °F 84% 29.94 in 7.0 mi SSE 8.1 mph - N/A   Clear
3:35 AM 64.4 °F - 59.4 °F 84% 29.93 in 7.0 mi SE 9.2 mph - N/A   Clear
3:55 AM 63.7 °F - 59.0 °F 85% 29.93 in 7.0 mi SE 6.9 mph - N/A   Clear
4:15 AM 62.2 °F - 58.1 °F 86% 29.93 in 7.0 mi ESE 9.2 mph - N/A   Clear
4:35 AM 62.4 °F - 58.6 °F 87% 29.93 in 7.0 mi ESE 8.1 mph - N/A   Clear
4:55 AM 61.9 °F - 58.6 °F 89% 29.91 in 5.0 mi ESE 10.4 mph - N/A   Clear
5:15 AM 61.7 °F - 58.3 °F 89% 29.94 in 5.0 mi SE 4.6 mph - N/A   Clear
5:35 AM 59.9 °F - 57.2 °F 91% 29.93 in 4.0 mi SE 3.5 mph - N/A   Clear
5:55 AM 59.7 °F - 57.2 °F 91% 29.95 in 4.0 mi South 4.6 mph - N/A   Clear
6:15 AM 60.3 °F - 57.9 °F 92% 29.95 in 4.0 mi SSE 6.9 mph - N/A   Clear
6:35 AM 61.7 °F - 58.8 °F 90% 29.95 in 4.0 mi ESE 4.6 mph - N/A   Clear
6:55 AM 63.9 °F - 60.1 °F 87% 29.94 in 4.0 mi ESE 8.1 mph - N/A   Clear
7:15 AM 66.7 °F - 61.3 °F 83% 29.93 in 5.0 mi ESE 8.1 mph - N/A   Haze
7:35 AM 68.2 °F - 61.7 °F 80% 29.93 in 5.0 mi SE 8.1 mph - N/A   Haze
7:55 AM 69.8 °F - 61.9 °F 76% 29.93 in 7.0 mi ESE 12.7 mph - N/A   Clear
8:15 AM 71.6 °F - 61.9 °F 71% 29.93 in 7.0 mi SE 12.7 mph - N/A   Clear
8:35 AM 73.9 °F - 62.1 °F 66% 29.93 in 10.0 mi SE 12.7 mph - N/A   Clear
8:55 AM 75.6 °F - 61.3 °F 61% 29.94 in 10.0 mi SSE 10.4 mph - N/A   Clear
9:15 AM 76.8 °F - 61.0 °F 58% 29.93 in 10.0 mi SSE 11.5 mph 17.3 mph N/A   Clear
9:35 AM 77.5 °F - 60.4 °F 55% 29.93 in 10.0 mi South 11.5 mph - N/A   Mostly Cloudy
9:55 AM 77.0 °F - 60.3 °F 56% 29.92 in 10.0 mi SSE 5.8 mph - N/A   Mostly Cloudy
10:15 AM 79.3 °F - 59.5 °F 51% 29.92 in 10.0 mi South 5.8 mph - N/A   Scattered Clouds
10:35 AM 80.1 °F 80.7 °F 59.0 °F 48% 29.89 in 10.0 mi SE 13.8 mph 17.3 mph N/A   Clear
10:55 AM 81.7 °F 82.0 °F 59.4 °F 47% 29.89 in 10.0 mi SSE 17.3 mph 20.7 mph N/A   Clear
11:15 AM 81.5 °F 81.7 °F 58.6 °F 46% 29.88 in 10.0 mi SE 15.0 mph - N/A   Clear
11:35 AM 81.9 °F 82.2 °F 59.7 °F 47% 29.89 in 10.0 mi SE 17.3 mph 21.9 mph N/A   Clear
11:55 AM 82.8 °F 82.8 °F 59.2 °F 45% 29.86 in 10.0 mi ESE 17.3 mph 23.0 mph N/A   Clear
12:15 PM 84.7 °F 84.4 °F 59.4 °F 42% 29.88 in 10.0 mi SSE 17.3 mph 23.0 mph N/A   Clear
12:35 PM 85.6 °F 85.2 °F 59.4 °F 41% 29.87 in 10.0 mi SSE 17.3 mph 23.0 mph N/A   Scattered Clouds
12:55 PM 86.5 °F 86.1 °F 59.4 °F 40% 29.86 in 10.0 mi SSE 18.4 mph 25.3 mph N/A   Scattered Clouds
1:15 PM 86.9 °F 86.3 °F 59.2 °F 39% 29.86 in 10.0 mi SSE 23.0 mph - N/A   Scattered Clouds
1:35 PM 87.3 °F 86.5 °F 58.6 °F 38% 29.87 in 10.0 mi South 19.6 mph 25.3 mph N/A   Mostly Cloudy
1:55 PM 85.8 °F 85.4 °F 59.5 °F 41% 29.85 in 10.0 mi South 23.0 mph 28.8 mph N/A   Mostly Cloudy
2:15 PM 86.7 °F 86.1 °F 59.4 °F 39% 29.84 in 10.0 mi South 21.9 mph 26.5 mph N/A   Mostly Cloudy
2:35 PM 88.9 °F 87.7 °F 58.3 °F 35% 29.83 in 10.0 mi SSE 20.7 mph 27.6 mph N/A   Scattered Clouds
2:55 PM 89.8 °F 88.6 °F 58.1 °F 34% 29.80 in 10.0 mi SSE 18.4 mph 26.5 mph N/A   Clear
3:15 PM 89.6 °F 88.4 °F 58.1 °F 34% 29.79 in 10.0 mi SE 18.4 mph 27.6 mph N/A   Clear
3:35 PM 88.9 °F 87.7 °F 58.1 °F 35% 29.77 in 10.0 mi SE 16.1 mph 26.5 mph N/A   Clear
3:55 PM 89.1 °F 88.0 °F 58.1 °F 35% 29.76 in 10.0 mi SE 16.1 mph 21.9 mph N/A   Clear
4:15 PM 89.6 °F 88.4 °F 57.4 °F 34% 29.76 in 10.0 mi ESE 17.3 mph 20.7 mph N/A   Clear
4:35 PM 90.1 °F 88.8 °F 57.0 °F 33% 29.77 in 10.0 mi SSE 18.4 mph 25.3 mph N/A   Clear
4:55 PM 90.0 °F 88.6 °F 57.0 °F 33% 29.77 in 10.0 mi SSE 19.6 mph 25.3 mph N/A   Clear
5:15 PM 90.3 °F 88.8 °F 57.0 °F 32% 29.77 in 10.0 mi South 17.3 mph 21.9 mph N/A   Clear
5:35 PM 89.8 °F 88.4 °F 57.2 °F 33% 29.76 in 10.0 mi SSE 21.9 mph - N/A   Scattered Clouds
5:55 PM 89.8 °F 88.6 °F 57.9 °F 34% 29.74 in 10.0 mi SE 19.6 mph 23.0 mph N/A   Scattered Clouds
6:15 PM 89.6 °F 88.4 °F 57.7 °F 34% 29.74 in 10.0 mi SSE 19.6 mph 25.3 mph N/A   Scattered Clouds
6:35 PM 88.7 °F 87.5 °F 57.7 °F 35% 29.74 in 10.0 mi SSE 20.7 mph 26.5 mph N/A   Scattered Clouds
6:55 PM 87.8 °F 86.7 °F 57.9 °F 36% 29.74 in 10.0 mi SSE 20.7 mph 26.5 mph N/A   Scattered Clouds
7:15 PM 86.7 °F 86.1 °F 59.0 °F 39% 29.75 in 10.0 mi SSE 21.9 mph - N/A   Scattered Clouds
7:35 PM 85.8 °F 85.4 °F 59.9 °F 41% 29.76 in 10.0 mi SSE 17.3 mph 23.0 mph N/A   Clear
7:55 PM 84.9 °F 85.0 °F 60.4 °F 44% 29.76 in 10.0 mi SSE 17.3 mph - N/A   Clear
8:15 PM 84.2 °F 84.6 °F 61.2 °F 46% 29.77 in 10.0 mi SSE 17.3 mph - N/A Thunderstorm Scattered Clouds
8:35 PM 82.9 °F 82.7 °F 58.5 °F 43% 29.83 in 7.0 mi WSW 38.0 mph 43.7 mph N/A Thunderstorm Mostly Cloudy
8:55 PM 66.0 °F - 62.1 °F 87% 29.84 in 3.0 mi West 5.8 mph 17.3 mph 0.20 in Rain , Thunderstorm Heavy Thunderstorms and Rain
9:15 PM 65.3 °F - 62.4 °F 90% 29.79 in 7.0 mi Calm Calm - 0.04 in Rain , Thunderstorm Light Thunderstorms and Rain
9:35 PM 65.3 °F - 62.6 °F 91% 29.79 in 10.0 mi ESE 9.2 mph - 0.04 in Thunderstorm Thunderstorm
9:55 PM 65.5 °F - 62.6 °F 90% 29.77 in 10.0 mi East 6.9 mph - 0.04 in   Clear
10:15 PM 66.4 °F - 62.6 °F 88% 29.77 in 10.0 mi ESE 10.4 mph - N/A   Scattered Clouds
10:35 PM 68.0 °F - 62.2 °F 82% 29.76 in 10.0 mi East 11.5 mph - N/A   Scattered Clouds
10:55 PM 66.6 °F - 62.6 °F 87% 29.75 in 10.0 mi ESE 12.7 mph - N/A   Scattered Clouds
11:15 PM 67.5 °F - 62.2 °F 83% 29.76 in 10.0 mi SE 12.7 mph - N/A   Clear
11:35 PM 68.4 °F - 62.4 °F 81% 29.76 in 10.0 mi SE 10.4 mph - N/A   Clear
11:55 PM 68.4 °F - 62.2 °F 81% 29.76 in 10.0 mi SE 12.7 mph - N/A   Scattered Clouds